Year,Month,Day,Hour,Minute,Value (Times are PST for temperature in C)
2024,04,18,00,00,5.00
2024,04,18,00,01,5.00
2024,04,18,00,02,5.00
2024,04,18,00,03,4.90
2024,04,18,00,04,4.90
2024,04,18,00,05,4.90
2024,04,18,00,06,4.90
2024,04,18,00,07,4.90
2024,04,18,00,08,4.90
2024,04,18,00,09,4.90
2024,04,18,00,10,4.90
2024,04,18,00,11,4.80
2024,04,18,00,12,4.80
2024,04,18,00,13,4.80
2024,04,18,00,14,4.70
2024,04,18,00,15,4.70
2024,04,18,00,16,4.70
2024,04,18,00,17,4.60
2024,04,18,00,18,4.60
2024,04,18,00,19,4.60
2024,04,18,00,20,4.50
2024,04,18,00,21,4.50
2024,04,18,00,22,4.40
2024,04,18,00,23,4.40
2024,04,18,00,24,4.40
2024,04,18,00,25,4.30
2024,04,18,00,26,4.30
2024,04,18,00,27,4.30
2024,04,18,00,28,4.30
2024,04,18,00,29,4.30
2024,04,18,00,30,4.30
2024,04,18,00,31,4.40
2024,04,18,00,32,4.40
2024,04,18,00,33,4.40
2024,04,18,00,34,4.40
2024,04,18,00,35,4.40
2024,04,18,00,36,4.40
2024,04,18,00,37,4.40
2024,04,18,00,38,4.40
2024,04,18,00,39,4.40
2024,04,18,00,40,4.30
2024,04,18,00,41,4.30
2024,04,18,00,42,4.30
2024,04,18,00,43,4.30
2024,04,18,00,44,4.20
2024,04,18,00,45,4.20
2024,04,18,00,46,4.20
2024,04,18,00,47,4.20
2024,04,18,00,48,4.20
2024,04,18,00,49,4.10
2024,04,18,00,50,4.10
2024,04,18,00,51,4.10
2024,04,18,00,52,4.10
2024,04,18,00,53,4.00
2024,04,18,00,54,4.00
2024,04,18,00,55,4.00
2024,04,18,00,56,3.90
2024,04,18,00,57,3.90
2024,04,18,00,58,3.90
2024,04,18,00,59,3.90
2024,04,18,01,00,3.90
2024,04,18,01,01,3.90
2024,04,18,01,02,3.90
2024,04,18,01,03,3.90
2024,04,18,01,04,3.90
2024,04,18,01,05,3.90
2024,04,18,01,06,3.90
2024,04,18,01,07,3.90
2024,04,18,01,08,3.90
2024,04,18,01,09,3.90
2024,04,18,01,10,3.90
2024,04,18,01,11,3.90
2024,04,18,01,12,3.90
2024,04,18,01,13,3.90
2024,04,18,01,14,3.80
2024,04,18,01,15,3.80
2024,04,18,01,16,3.80
2024,04,18,01,17,3.70
2024,04,18,01,18,3.70
2024,04,18,01,19,3.70
2024,04,18,01,20,3.70
2024,04,18,01,21,3.60
2024,04,18,01,22,3.60
2024,04,18,01,23,3.60
2024,04,18,01,24,3.60
2024,04,18,01,25,3.60
2024,04,18,01,26,3.60
2024,04,18,01,27,3.60
2024,04,18,01,28,3.60
2024,04,18,01,29,3.60
2024,04,18,01,30,3.60
2024,04,18,01,31,3.60
2024,04,18,01,32,3.60
2024,04,18,01,33,3.50
2024,04,18,01,34,3.50
2024,04,18,01,35,3.50
2024,04,18,01,36,3.60
2024,04,18,01,37,3.50
2024,04,18,01,38,3.50
2024,04,18,01,39,3.50
2024,04,18,01,40,3.50
2024,04,18,01,41,3.40
2024,04,18,01,42,3.40
2024,04,18,01,43,3.40
2024,04,18,01,44,3.30
2024,04,18,01,45,3.30
2024,04,18,01,46,3.30
2024,04,18,01,47,3.30
2024,04,18,01,48,3.20
2024,04,18,01,49,3.20
2024,04,18,01,50,3.20
2024,04,18,01,51,3.20
2024,04,18,01,52,3.10
2024,04,18,01,53,3.10
2024,04,18,01,54,3.10
2024,04,18,01,55,3.10
2024,04,18,01,56,3.00
2024,04,18,01,57,3.00
2024,04,18,01,58,3.00
2024,04,18,01,59,3.00
2024,04,18,02,00,3.00
2024,04,18,02,01,2.90
2024,04,18,02,02,2.90
2024,04,18,02,03,2.90
2024,04,18,02,04,2.90
2024,04,18,02,05,2.90
2024,04,18,02,06,2.90
2024,04,18,02,07,2.90
2024,04,18,02,08,2.90
2024,04,18,02,09,2.80
2024,04,18,02,10,2.80
2024,04,18,02,11,2.80
2024,04,18,02,12,2.80
2024,04,18,02,13,2.80
2024,04,18,02,14,2.80
2024,04,18,02,15,2.80
2024,04,18,02,16,2.80
2024,04,18,02,17,2.80
2024,04,18,02,18,2.80
2024,04,18,02,19,2.80
2024,04,18,02,20,2.80
2024,04,18,02,21,2.80
2024,04,18,02,22,2.80
2024,04,18,02,23,2.80
2024,04,18,02,24,2.80
2024,04,18,02,25,2.80
2024,04,18,02,26,2.80
2024,04,18,02,27,2.70
2024,04,18,02,28,2.80
2024,04,18,02,29,2.70
2024,04,18,02,30,2.70
2024,04,18,02,31,2.70
2024,04,18,02,32,2.70
2024,04,18,02,33,2.70
2024,04,18,02,34,2.70
2024,04,18,02,35,2.70
2024,04,18,02,36,2.60
2024,04,18,02,37,2.60
2024,04,18,02,38,2.60
2024,04,18,02,39,2.60
2024,04,18,02,40,2.60
2024,04,18,02,41,2.60
2024,04,18,02,42,2.60
2024,04,18,02,43,2.60
2024,04,18,02,44,2.60
2024,04,18,02,45,2.60
2024,04,18,02,46,2.60
2024,04,18,02,47,2.60
2024,04,18,02,48,2.60
2024,04,18,02,49,2.60
2024,04,18,02,50,2.60
2024,04,18,02,51,2.60
2024,04,18,02,52,2.50
2024,04,18,02,53,2.50
2024,04,18,02,54,2.50
2024,04,18,02,55,2.40
2024,04,18,02,56,2.40
2024,04,18,02,57,2.40
2024,04,18,02,58,2.40
2024,04,18,02,59,2.40
2024,04,18,03,00,2.30
2024,04,18,03,01,2.30
2024,04,18,03,02,2.30
2024,04,18,03,03,2.30
2024,04,18,03,04,2.20
2024,04,18,03,05,2.20
2024,04,18,03,06,2.20
2024,04,18,03,07,2.20
2024,04,18,03,08,2.20
2024,04,18,03,09,2.20
2024,04,18,03,10,2.20
2024,04,18,03,11,2.20
2024,04,18,03,12,2.20
2024,04,18,03,13,2.20
2024,04,18,03,14,2.20
2024,04,18,03,15,2.10
2024,04,18,03,16,2.10
2024,04,18,03,17,2.10
2024,04,18,03,18,2.10
2024,04,18,03,19,2.10
2024,04,18,03,20,2.10
2024,04,18,03,21,2.10
2024,04,18,03,22,2.10
2024,04,18,03,23,2.10
2024,04,18,03,24,2.10
2024,04,18,03,25,2.20
2024,04,18,03,26,2.20
2024,04,18,03,27,2.20
2024,04,18,03,28,2.20
2024,04,18,03,29,2.20
2024,04,18,03,30,2.10
2024,04,18,03,31,2.10
2024,04,18,03,32,2.10
2024,04,18,03,33,2.10
2024,04,18,03,34,2.10
2024,04,18,03,35,2.10
2024,04,18,03,36,2.10
2024,04,18,03,37,2.10
2024,04,18,03,38,2.00
2024,04,18,03,39,2.00
2024,04,18,03,40,2.00
2024,04,18,03,41,2.00
2024,04,18,03,42,2.00
2024,04,18,03,43,1.90
2024,04,18,03,44,1.90
2024,04,18,03,45,1.90
2024,04,18,03,46,1.90
2024,04,18,03,47,1.90
2024,04,18,03,48,1.90
2024,04,18,03,49,1.90
2024,04,18,03,50,1.90
2024,04,18,03,51,1.80
2024,04,18,03,52,1.80
2024,04,18,03,53,1.80
2024,04,18,03,54,1.80
2024,04,18,03,55,1.80
2024,04,18,03,56,1.80
2024,04,18,03,57,1.80
2024,04,18,03,58,1.80
2024,04,18,03,59,1.70
2024,04,18,04,00,1.70
2024,04,18,04,01,1.70
2024,04,18,04,02,1.70
2024,04,18,04,03,1.70
2024,04,18,04,04,1.70
2024,04,18,04,05,1.70
2024,04,18,04,06,1.70
2024,04,18,04,07,1.70
2024,04,18,04,08,1.60
2024,04,18,04,09,1.60
2024,04,18,04,10,1.60
2024,04,18,04,11,1.60
2024,04,18,04,12,1.60
2024,04,18,04,13,1.60
2024,04,18,04,14,1.60
2024,04,18,04,15,1.60
2024,04,18,04,16,1.60
2024,04,18,04,17,1.60
2024,04,18,04,18,1.60
2024,04,18,04,19,1.60
2024,04,18,04,20,1.60
2024,04,18,04,21,1.50
2024,04,18,04,22,1.50
2024,04,18,04,23,1.50
2024,04,18,04,24,1.50
2024,04,18,04,25,1.60
2024,04,18,04,26,1.60
2024,04,18,04,27,1.60
2024,04,18,04,28,1.60
2024,04,18,04,29,1.60
2024,04,18,04,30,1.50
2024,04,18,04,31,1.50
2024,04,18,04,32,1.50
2024,04,18,04,33,1.50
2024,04,18,04,34,1.60
2024,04,18,04,35,1.50
2024,04,18,04,36,1.60
2024,04,18,04,37,1.60
2024,04,18,04,38,1.60
2024,04,18,04,39,1.60
2024,04,18,04,40,1.60
2024,04,18,04,41,1.60
2024,04,18,04,42,1.60
2024,04,18,04,43,1.60
2024,04,18,04,44,1.60
2024,04,18,04,45,1.60
2024,04,18,04,46,1.60
2024,04,18,04,47,1.60
2024,04,18,04,48,1.60
2024,04,18,04,49,1.60
2024,04,18,04,50,1.50
2024,04,18,04,51,1.50
2024,04,18,04,52,1.40
2024,04,18,04,53,1.40
2024,04,18,04,54,1.40
2024,04,18,04,55,1.40
2024,04,18,04,56,1.40
2024,04,18,04,57,1.40
2024,04,18,04,58,1.30
2024,04,18,04,59,1.30
2024,04,18,05,00,1.30
2024,04,18,05,01,1.30
2024,04,18,05,02,1.30
2024,04,18,05,03,1.40
2024,04,18,05,04,1.40
2024,04,18,05,05,1.40
2024,04,18,05,06,1.30
2024,04,18,05,07,1.30
2024,04,18,05,08,1.30
2024,04,18,05,09,1.30
2024,04,18,05,10,1.30
2024,04,18,05,11,1.30
2024,04,18,05,12,1.30
2024,04,18,05,13,1.30
2024,04,18,05,14,1.20
2024,04,18,05,15,1.20
2024,04,18,05,16,1.20
2024,04,18,05,17,1.20
2024,04,18,05,18,1.20
2024,04,18,05,19,1.20
2024,04,18,05,20,1.20
2024,04,18,05,21,1.20
2024,04,18,05,22,1.20
2024,04,18,05,23,1.20
2024,04,18,05,24,1.20
2024,04,18,05,25,1.20
2024,04,18,05,26,1.20
2024,04,18,05,27,1.20
2024,04,18,05,28,1.20
2024,04,18,05,29,1.10
2024,04,18,05,30,1.10
2024,04,18,05,31,1.10
2024,04,18,05,32,1.10
2024,04,18,05,33,1.10
2024,04,18,05,34,1.10
2024,04,18,05,35,1.10
2024,04,18,05,36,1.10
2024,04,18,05,37,1.00
2024,04,18,05,38,1.00
2024,04,18,05,39,1.00
2024,04,18,05,40,1.00
2024,04,18,05,41,1.00
2024,04,18,05,42,1.00
2024,04,18,05,43,1.00
2024,04,18,05,44,1.00
2024,04,18,05,45,1.00
2024,04,18,05,46,1.00
2024,04,18,05,47,1.00
2024,04,18,05,48,1.00
2024,04,18,05,49,1.00
2024,04,18,05,50,1.00
2024,04,18,05,51,1.10
2024,04,18,05,52,1.10
2024,04,18,05,53,1.10
2024,04,18,05,54,1.10
2024,04,18,05,55,1.00
2024,04,18,05,56,1.00
2024,04,18,05,57,1.00
2024,04,18,05,58,1.00
2024,04,18,05,59,1.00
2024,04,18,06,00,1.00
2024,04,18,06,01,1.00
2024,04,18,06,02,1.00
2024,04,18,06,03,0.90
2024,04,18,06,04,0.90
2024,04,18,06,05,0.90
2024,04,18,06,06,0.90
2024,04,18,06,07,0.90
2024,04,18,06,08,0.90
2024,04,18,06,09,0.90
2024,04,18,06,10,0.90
2024,04,18,06,11,0.90
2024,04,18,06,12,0.80
2024,04,18,06,13,0.80
2024,04,18,06,14,0.80
2024,04,18,06,15,0.80
2024,04,18,06,16,0.80
2024,04,18,06,17,0.80
2024,04,18,06,18,0.80
2024,04,18,06,19,0.80
2024,04,18,06,20,0.80
2024,04,18,06,21,0.70
2024,04,18,06,22,0.70
2024,04,18,06,23,0.70
2024,04,18,06,24,0.70
2024,04,18,06,25,0.70
2024,04,18,06,26,0.70
2024,04,18,06,27,0.70
2024,04,18,06,28,0.70
2024,04,18,06,29,0.70
2024,04,18,06,30,0.70
2024,04,18,06,31,0.70
2024,04,18,06,32,0.70
2024,04,18,06,33,0.70
2024,04,18,06,34,0.70
2024,04,18,06,35,0.70
2024,04,18,06,36,0.70
2024,04,18,06,37,0.70
2024,04,18,06,38,0.70
2024,04,18,06,39,0.70
2024,04,18,06,40,0.70
2024,04,18,06,41,0.70
2024,04,18,06,42,0.70
2024,04,18,06,43,0.80
2024,04,18,06,44,0.80
2024,04,18,06,45,0.80
2024,04,18,06,46,0.80
2024,04,18,06,47,0.80
2024,04,18,06,48,0.80
2024,04,18,06,49,0.80
2024,04,18,06,50,0.80
2024,04,18,06,51,0.80
2024,04,18,06,52,0.80
2024,04,18,06,53,0.80
2024,04,18,06,54,0.80
2024,04,18,06,55,0.80
2024,04,18,06,56,0.90
2024,04,18,06,57,0.90
2024,04,18,06,58,0.90
2024,04,18,06,59,0.90
2024,04,18,07,00,0.90
2024,04,18,07,01,0.90
2024,04,18,07,02,0.90
2024,04,18,07,03,1.00
2024,04,18,07,04,1.00
2024,04,18,07,05,1.00
2024,04,18,07,06,1.10
2024,04,18,07,07,1.10
2024,04,18,07,08,1.10
2024,04,18,07,09,1.20
2024,04,18,07,10,1.20
2024,04,18,07,11,1.30
2024,04,18,07,12,1.30
2024,04,18,07,13,1.30
2024,04,18,07,14,1.40
2024,04,18,07,15,1.40
2024,04,18,07,16,1.40
2024,04,18,07,17,1.50
2024,04,18,07,18,1.60
2024,04,18,07,19,1.60
2024,04,18,07,20,1.70
2024,04,18,07,21,1.70
2024,04,18,07,22,1.70
2024,04,18,07,23,1.80
2024,04,18,07,24,1.80
2024,04,18,07,25,1.90
2024,04,18,07,26,1.90
2024,04,18,07,27,2.00
2024,04,18,07,28,2.10
2024,04,18,07,29,2.10
2024,04,18,07,30,2.20
2024,04,18,07,31,2.20
2024,04,18,07,32,2.20
2024,04,18,07,33,2.30
2024,04,18,07,34,2.40
2024,04,18,07,35,2.50
2024,04,18,07,36,2.50
2024,04,18,07,37,2.60
2024,04,18,07,38,2.70
2024,04,18,07,39,2.80
2024,04,18,07,40,2.80
2024,04,18,07,41,2.90
2024,04,18,07,42,3.00
2024,04,18,07,43,3.10
2024,04,18,07,44,3.10
2024,04,18,07,45,3.20
2024,04,18,07,46,3.20
2024,04,18,07,47,3.30
2024,04,18,07,48,3.30
2024,04,18,07,49,3.40
2024,04,18,07,50,3.50
2024,04,18,07,51,3.50
2024,04,18,07,52,3.60
2024,04,18,07,53,3.70
2024,04,18,07,54,3.80
2024,04,18,07,55,3.90
2024,04,18,07,56,4.00
2024,04,18,07,57,4.10
2024,04,18,07,58,4.20
2024,04,18,07,59,4.30
2024,04,18,08,00,4.40
2024,04,18,08,01,4.50
2024,04,18,08,02,4.60
2024,04,18,08,03,4.70
2024,04,18,08,04,4.80
2024,04,18,08,05,4.90
2024,04,18,08,06,5.00
2024,04,18,08,07,5.10
2024,04,18,08,08,5.10
2024,04,18,08,09,5.20
2024,04,18,08,10,5.30
2024,04,18,08,11,5.40
2024,04,18,08,12,5.50
2024,04,18,08,13,5.60
2024,04,18,08,14,5.60
2024,04,18,08,15,5.70
2024,04,18,08,16,5.80
2024,04,18,08,17,5.90
2024,04,18,08,18,6.00
2024,04,18,08,19,6.10
2024,04,18,08,20,6.10
2024,04,18,08,21,6.20
2024,04,18,08,22,6.30
2024,04,18,08,23,6.40
2024,04,18,08,24,6.50
2024,04,18,08,25,6.60
2024,04,18,08,26,6.70
2024,04,18,08,27,6.80
2024,04,18,08,28,6.90
2024,04,18,08,29,7.00
2024,04,18,08,30,7.10
2024,04,18,08,31,7.20
2024,04,18,08,32,7.30
2024,04,18,08,33,7.40
2024,04,18,08,34,7.50
2024,04,18,08,35,7.60
2024,04,18,08,36,7.70
2024,04,18,08,37,7.80
2024,04,18,08,38,7.90
2024,04,18,08,39,8.00
2024,04,18,08,40,8.10
2024,04,18,08,41,8.20
2024,04,18,08,42,8.30
2024,04,18,08,43,8.40
2024,04,18,08,44,8.50
2024,04,18,08,45,8.60
2024,04,18,08,46,8.70
2024,04,18,08,47,8.80
2024,04,18,08,48,8.90
2024,04,18,08,49,9.00
2024,04,18,08,50,9.10
2024,04,18,08,51,9.20
2024,04,18,08,52,9.30
2024,04,18,08,53,9.40
2024,04,18,08,54,9.50
2024,04,18,08,55,9.60
2024,04,18,08,56,9.70
2024,04,18,08,57,9.70
2024,04,18,08,58,9.80
2024,04,18,08,59,9.80
2024,04,18,09,00,9.90
2024,04,18,09,01,9.90
2024,04,18,09,02,10.00
2024,04,18,09,03,10.00
2024,04,18,09,04,10.10
2024,04,18,09,05,10.10
2024,04,18,09,06,10.20
2024,04,18,09,07,10.20
2024,04,18,09,08,10.20
2024,04,18,09,09,10.30
2024,04,18,09,10,10.30
2024,04,18,09,11,10.30
2024,04,18,09,12,10.40
2024,04,18,09,13,10.40
2024,04,18,09,14,10.50
2024,04,18,09,15,10.60
2024,04,18,09,16,10.60
2024,04,18,09,17,10.70
2024,04,18,09,18,10.70
2024,04,18,09,19,10.70
2024,04,18,09,20,10.70
2024,04,18,09,21,10.80
2024,04,18,09,22,10.80
2024,04,18,09,23,10.90
2024,04,18,09,24,10.90
2024,04,18,09,25,11.00
2024,04,18,09,26,11.10
2024,04,18,09,27,11.10
2024,04,18,09,28,11.10
2024,04,18,09,29,11.20
2024,04,18,09,30,11.20
2024,04,18,09,31,11.30
2024,04,18,09,32,11.30
2024,04,18,09,33,11.40
2024,04,18,09,34,11.50
2024,04,18,09,35,11.50
2024,04,18,09,36,11.60
2024,04,18,09,37,11.70
2024,04,18,09,38,11.70
2024,04,18,09,39,11.70
2024,04,18,09,40,11.80
2024,04,18,09,41,11.80
2024,04,18,09,42,11.90
2024,04,18,09,43,11.90
2024,04,18,09,44,12.00
2024,04,18,09,45,12.10
2024,04,18,09,46,12.10
2024,04,18,09,47,12.20
2024,04,18,09,48,12.30
2024,04,18,09,49,12.30
2024,04,18,09,50,12.40
2024,04,18,09,51,12.50
2024,04,18,09,52,12.50
2024,04,18,09,53,12.60
2024,04,18,09,54,12.70
2024,04,18,09,55,12.80
2024,04,18,09,56,12.80
2024,04,18,09,57,12.80
2024,04,18,09,58,12.90
2024,04,18,09,59,13.00
2024,04,18,10,00,13.00
2024,04,18,10,01,13.00
2024,04,18,10,02,13.10
2024,04,18,10,03,13.10
2024,04,18,10,04,13.10
2024,04,18,10,05,13.20
2024,04,18,10,06,13.30
2024,04,18,10,07,13.30
2024,04,18,10,08,13.30
2024,04,18,10,09,13.30
2024,04,18,10,10,13.30
2024,04,18,10,11,13.30
2024,04,18,10,12,13.20
2024,04,18,10,13,13.20
2024,04,18,10,14,13.20
2024,04,18,10,15,13.20
2024,04,18,10,16,13.20
2024,04,18,10,17,13.20
2024,04,18,10,18,13.20
2024,04,18,10,19,13.20
2024,04,18,10,20,13.20
2024,04,18,10,21,13.20
2024,04,18,10,22,13.20
2024,04,18,10,23,13.30
2024,04,18,10,24,13.30
2024,04,18,10,25,13.40
2024,04,18,10,26,13.40
2024,04,18,10,27,13.40
2024,04,18,10,28,13.50
2024,04,18,10,29,13.50
2024,04,18,10,30,13.40
2024,04,18,10,31,13.50
2024,04,18,10,32,13.50
2024,04,18,10,33,13.60
2024,04,18,10,34,13.60
2024,04,18,10,35,13.60
2024,04,18,10,36,13.70
2024,04,18,10,37,13.70
2024,04,18,10,38,13.70
2024,04,18,10,39,13.70
2024,04,18,10,40,13.70
2024,04,18,10,41,13.70
2024,04,18,10,42,13.70
2024,04,18,10,43,13.70
2024,04,18,10,44,13.70
2024,04,18,10,45,13.70
2024,04,18,10,46,13.70
2024,04,18,10,47,13.70
2024,04,18,10,48,13.70
2024,04,18,10,49,13.70
2024,04,18,10,50,13.70
2024,04,18,10,51,13.70
2024,04,18,10,52,13.70
2024,04,18,10,53,13.70
2024,04,18,10,54,13.70
2024,04,18,10,55,13.70
2024,04,18,10,56,13.70
2024,04,18,10,57,13.70
2024,04,18,10,58,13.70
2024,04,18,10,59,13.70
2024,04,18,11,00,13.70
2024,04,18,11,01,13.80
2024,04,18,11,02,13.80
2024,04,18,11,03,13.80
2024,04,18,11,04,13.90
2024,04,18,11,05,13.80
2024,04,18,11,06,13.90
2024,04,18,11,07,13.90
2024,04,18,11,08,13.90
2024,04,18,11,09,14.00
2024,04,18,11,10,14.00
2024,04,18,11,11,14.00
2024,04,18,11,12,14.00
2024,04,18,11,13,14.10
2024,04,18,11,14,14.10
2024,04,18,11,15,14.10
2024,04,18,11,16,14.10
2024,04,18,11,17,14.20
2024,04,18,11,18,14.20
2024,04,18,11,19,14.20
2024,04,18,11,20,14.10
2024,04,18,11,21,14.10
2024,04,18,11,22,14.10
2024,04,18,11,23,14.10
2024,04,18,11,24,14.10
2024,04,18,11,25,14.20
2024,04,18,11,26,14.20
2024,04,18,11,27,14.30
2024,04,18,11,28,14.30
2024,04,18,11,29,14.30
2024,04,18,11,30,14.30
2024,04,18,11,31,14.30
2024,04,18,11,32,14.30
2024,04,18,11,33,14.30
2024,04,18,11,34,14.30
2024,04,18,11,35,14.40
2024,04,18,11,36,14.40
2024,04,18,11,37,14.40
2024,04,18,11,38,14.40
2024,04,18,11,39,14.40
2024,04,18,11,40,14.30
2024,04,18,11,41,14.30
2024,04,18,11,42,14.20
2024,04,18,11,43,14.20
2024,04,18,11,44,14.30
2024,04,18,11,45,14.30
2024,04,18,11,46,14.30
2024,04,18,11,47,14.30
2024,04,18,11,48,14.30
2024,04,18,11,49,14.40
2024,04,18,11,50,14.50
2024,04,18,11,51,14.50
2024,04,18,11,52,14.50
2024,04,18,11,53,14.60
2024,04,18,11,54,14.60
2024,04,18,11,55,14.60
2024,04,18,11,56,14.60
2024,04,18,11,57,14.60
2024,04,18,11,58,14.60
2024,04,18,11,59,14.60
2024,04,18,12,00,14.70
2024,04,18,12,01,14.70
2024,04,18,12,02,14.70
2024,04,18,12,03,14.70
2024,04,18,12,04,14.60
2024,04,18,12,05,14.60
2024,04,18,12,06,14.60
2024,04,18,12,07,14.70
2024,04,18,12,08,14.80
2024,04,18,12,09,14.80
2024,04,18,12,10,14.80
2024,04,18,12,11,14.90
2024,04,18,12,12,14.90
2024,04,18,12,13,14.90
2024,04,18,12,14,14.90
2024,04,18,12,15,15.00
2024,04,18,12,16,14.90
2024,04,18,12,17,14.90
2024,04,18,12,18,14.90
2024,04,18,12,19,14.80
2024,04,18,12,20,14.70
2024,04,18,12,21,14.60
2024,04,18,12,22,14.50
2024,04,18,12,23,14.50
2024,04,18,12,24,14.40
2024,04,18,12,25,14.50
2024,04,18,12,26,14.60
2024,04,18,12,27,14.60
2024,04,18,12,28,14.60
2024,04,18,12,29,14.60
2024,04,18,12,30,14.70
2024,04,18,12,31,14.70
2024,04,18,12,32,14.70
2024,04,18,12,33,14.70
2024,04,18,12,34,14.70
2024,04,18,12,35,14.80
2024,04,18,12,36,14.80
2024,04,18,12,37,14.80
2024,04,18,12,38,14.80
2024,04,18,12,39,14.80
2024,04,18,12,40,14.80
2024,04,18,12,41,14.80
2024,04,18,12,42,14.80
2024,04,18,12,43,14.90
2024,04,18,12,44,14.90
2024,04,18,12,45,15.00
2024,04,18,12,46,15.00
2024,04,18,12,47,15.00
2024,04,18,12,48,15.00
2024,04,18,12,49,14.90
2024,04,18,12,50,14.90
2024,04,18,12,51,14.90
2024,04,18,12,52,14.90
2024,04,18,12,53,14.90
2024,04,18,12,54,14.90
2024,04,18,12,55,14.80
2024,04,18,12,56,14.80
2024,04,18,12,57,14.80
2024,04,18,12,58,14.80
2024,04,18,12,59,14.80
2024,04,18,13,00,14.90
2024,04,18,13,01,15.00
2024,04,18,13,02,15.00
2024,04,18,13,03,15.10
2024,04,18,13,04,15.20
2024,04,18,13,05,15.30
2024,04,18,13,06,15.30
2024,04,18,13,07,15.30
2024,04,18,13,08,15.30
2024,04,18,13,09,15.30
2024,04,18,13,10,15.30
2024,04,18,13,11,15.30
2024,04,18,13,12,15.30
2024,04,18,13,13,15.20
2024,04,18,13,14,15.20
2024,04,18,13,15,15.20
2024,04,18,13,16,15.10
2024,04,18,13,17,15.10
2024,04,18,13,18,15.10
2024,04,18,13,19,15.10
2024,04,18,13,20,15.10
2024,04,18,13,21,15.10
2024,04,18,13,22,15.20
2024,04,18,13,23,15.30
2024,04,18,13,24,15.30
2024,04,18,13,25,15.30
2024,04,18,13,26,15.30
2024,04,18,13,27,15.30
2024,04,18,13,28,15.20
2024,04,18,13,29,15.20
2024,04,18,13,30,15.10
2024,04,18,13,31,15.10
2024,04,18,13,32,15.10
2024,04,18,13,33,15.10
2024,04,18,13,34,15.10
2024,04,18,13,35,15.10
2024,04,18,13,36,15.20
2024,04,18,13,37,15.20
2024,04,18,13,38,15.30
2024,04,18,13,39,15.40
2024,04,18,13,40,15.40
2024,04,18,13,41,15.40
2024,04,18,13,42,15.40
2024,04,18,13,43,15.40
2024,04,18,13,44,15.30
2024,04,18,13,45,15.40
2024,04,18,13,46,15.40
2024,04,18,13,47,15.40
2024,04,18,13,48,15.40
2024,04,18,13,49,15.40
2024,04,18,13,50,15.40
2024,04,18,13,51,15.40
2024,04,18,13,52,15.50
2024,04,18,13,53,15.60
2024,04,18,13,54,15.70
2024,04,18,13,55,15.70
2024,04,18,13,56,15.70
2024,04,18,13,57,15.70
2024,04,18,13,58,15.80
2024,04,18,13,59,15.80
2024,04,18,14,00,15.90
2024,04,18,14,01,16.00
2024,04,18,14,02,16.00
2024,04,18,14,03,15.90
2024,04,18,14,04,15.90
2024,04,18,14,05,15.90
2024,04,18,14,06,15.90
2024,04,18,14,07,15.80
2024,04,18,14,08,15.80
2024,04,18,14,09,15.80
2024,04,18,14,10,15.90
2024,04,18,14,11,15.90
2024,04,18,14,12,15.80
2024,04,18,14,13,15.80
2024,04,18,14,14,15.80
2024,04,18,14,15,15.80
2024,04,18,14,16,15.80
2024,04,18,14,17,15.90
2024,04,18,14,18,16.00
2024,04,18,14,19,16.10
2024,04,18,14,20,16.00
2024,04,18,14,21,16.00
2024,04,18,14,22,15.90
2024,04,18,14,23,15.90
2024,04,18,14,24,15.90
2024,04,18,14,25,16.00
2024,04,18,14,26,16.00
2024,04,18,14,27,16.10
2024,04,18,14,28,16.10
2024,04,18,14,29,16.10
2024,04,18,14,30,16.10
2024,04,18,14,31,16.10
2024,04,18,14,32,16.20
2024,04,18,14,33,16.30
2024,04,18,14,34,16.30
2024,04,18,14,35,16.30
2024,04,18,14,36,16.30
2024,04,18,14,37,16.20
2024,04,18,14,38,16.10
2024,04,18,14,39,16.10
2024,04,18,14,40,16.00
2024,04,18,14,41,16.00
2024,04,18,14,42,15.90
2024,04,18,14,43,15.90
2024,04,18,14,44,15.90
2024,04,18,14,45,16.00
2024,04,18,14,46,16.10
2024,04,18,14,47,16.20
2024,04,18,14,48,16.30
2024,04,18,14,49,16.30
2024,04,18,14,50,16.30
2024,04,18,14,51,16.20
2024,04,18,14,52,16.30
2024,04,18,14,53,16.30
2024,04,18,14,54,16.30
2024,04,18,14,55,16.40
2024,04,18,14,56,16.40
2024,04,18,14,57,16.40
2024,04,18,14,58,16.40
2024,04,18,14,59,16.50
2024,04,18,15,00,16.60
2024,04,18,15,01,16.60
2024,04,18,15,02,16.70
2024,04,18,15,03,16.80
2024,04,18,15,04,16.90
2024,04,18,15,05,16.90
2024,04,18,15,06,17.00
2024,04,18,15,07,17.10
2024,04,18,15,08,17.10
2024,04,18,15,09,17.10
2024,04,18,15,10,17.20
2024,04,18,15,11,17.20
2024,04,18,15,12,17.20
2024,04,18,15,13,17.30
2024,04,18,15,14,17.30
2024,04,18,15,15,17.30
2024,04,18,15,16,17.30
2024,04,18,15,17,17.30
2024,04,18,15,18,17.30
2024,04,18,15,19,17.30
2024,04,18,15,20,17.20
2024,04,18,15,21,17.20
2024,04,18,15,22,17.20
2024,04,18,15,23,17.20
2024,04,18,15,24,17.20
2024,04,18,15,25,17.20
2024,04,18,15,26,17.10
2024,04,18,15,27,17.10
2024,04,18,15,28,17.10
2024,04,18,15,29,17.10
2024,04,18,15,30,17.10
2024,04,18,15,31,17.10
2024,04,18,15,32,17.00
2024,04,18,15,33,17.00
2024,04,18,15,34,17.00
2024,04,18,15,35,17.00
2024,04,18,15,36,17.00
2024,04,18,15,37,17.10
2024,04,18,15,38,17.10
2024,04,18,15,39,17.10
2024,04,18,15,40,17.20
2024,04,18,15,41,17.20
2024,04,18,15,42,17.10
2024,04,18,15,43,17.10
2024,04,18,15,44,17.10
2024,04,18,15,45,17.10
2024,04,18,15,46,17.10
2024,04,18,15,47,17.20
2024,04,18,15,48,17.20
2024,04,18,15,49,17.20
2024,04,18,15,50,17.20
2024,04,18,15,51,17.30
2024,04,18,15,52,17.30
2024,04,18,15,53,17.40
2024,04,18,15,54,17.40
2024,04,18,15,55,17.40
2024,04,18,15,56,17.40
2024,04,18,15,57,17.40
2024,04,18,15,58,17.40
2024,04,18,15,59,17.40
2024,04,18,16,00,17.40
2024,04,18,16,01,17.30
2024,04,18,16,02,17.30
2024,04,18,16,03,17.20
2024,04,18,16,04,17.10
2024,04,18,16,05,17.10
2024,04,18,16,06,17.00
2024,04,18,16,07,17.00
2024,04,18,16,08,17.00
2024,04,18,16,09,17.00
2024,04,18,16,10,17.00
2024,04,18,16,11,17.10
2024,04,18,16,12,17.10
2024,04,18,16,13,17.20
2024,04,18,16,14,17.20
2024,04,18,16,15,17.30
2024,04,18,16,16,17.30
2024,04,18,16,17,17.30
2024,04,18,16,18,17.30
2024,04,18,16,19,17.30
2024,04,18,16,20,17.30
2024,04,18,16,21,17.30
2024,04,18,16,22,17.30
2024,04,18,16,23,17.30
2024,04,18,16,24,17.30
2024,04,18,16,25,17.30
2024,04,18,16,26,17.30
2024,04,18,16,27,17.30
2024,04,18,16,28,17.30
2024,04,18,16,29,17.30
2024,04,18,16,30,17.30
2024,04,18,16,31,17.30
2024,04,18,16,32,17.30
2024,04,18,16,33,17.40
2024,04,18,16,34,17.40
2024,04,18,16,35,17.40
2024,04,18,16,36,17.40
2024,04,18,16,37,17.30
2024,04,18,16,38,17.40
2024,04,18,16,39,17.40
2024,04,18,16,40,17.40
2024,04,18,16,41,17.40
2024,04,18,16,42,17.40
2024,04,18,16,43,17.40
2024,04,18,16,44,17.40
2024,04,18,16,45,17.40
2024,04,18,16,46,17.40
2024,04,18,16,47,17.30
2024,04,18,16,48,17.30
2024,04,18,16,49,17.20
2024,04,18,16,50,17.20
2024,04,18,16,51,17.20
2024,04,18,16,52,17.20
2024,04,18,16,53,17.20
2024,04,18,16,54,17.30
2024,04,18,16,55,17.30
2024,04,18,16,56,17.20
2024,04,18,16,57,17.20
2024,04,18,16,58,17.20
2024,04,18,16,59,17.20
2024,04,18,17,00,17.20
2024,04,18,17,01,17.20
2024,04,18,17,02,17.20
2024,04,18,17,03,17.30
2024,04,18,17,04,17.30
2024,04,18,17,05,17.30
2024,04,18,17,06,17.30
2024,04,18,17,07,17.30
2024,04,18,17,08,17.30
2024,04,18,17,09,17.30
2024,04,18,17,10,17.30
2024,04,18,17,11,17.30
2024,04,18,17,12,17.30
2024,04,18,17,13,17.30
2024,04,18,17,14,17.30
2024,04,18,17,15,17.30
2024,04,18,17,16,17.30
2024,04,18,17,17,17.30
2024,04,18,17,18,17.30
2024,04,18,17,19,17.30
2024,04,18,17,20,17.30
2024,04,18,17,21,17.30
2024,04,18,17,22,17.20
2024,04,18,17,23,17.20
2024,04,18,17,24,17.20
2024,04,18,17,25,17.10
2024,04,18,17,26,17.10
2024,04,18,17,27,17.10
2024,04,18,17,28,17.10
2024,04,18,17,29,17.10
2024,04,18,17,30,17.20
2024,04,18,17,31,17.10
2024,04,18,17,32,17.10
2024,04,18,17,33,17.20
2024,04,18,17,34,17.20
2024,04,18,17,35,17.20
2024,04,18,17,36,17.20
2024,04,18,17,37,17.20
2024,04,18,17,38,17.20
2024,04,18,17,39,17.20
2024,04,18,17,40,17.20
2024,04,18,17,41,17.20
2024,04,18,17,42,17.20
2024,04,18,17,43,17.20